TIME,DELAY(SENSOR),PRES,T(CTD),SAL,OXYGEN,RAWTEMP,T(OPTODE),TCPHASE,FLUOR,BETA(BETA700),BETA(BETA412),BETA(BETA440),CDOM,C(CSC),ED(ED411.90),ED(ED443.80),ED(ED489.40),ED(ED554.70),LU(LU412.20),LU(LU443.80),LU(LU489.40),LU(LU555.00),COMP,TILTX,TILTX(TILTY),CHECK
1357833971,5804,497.1000061035156000,17.2283000946044920,36.4035987854003900,220.6651000976562500,180.9391021728515600,17.2230091094970700,31.8021793365478500,51,99,97,80,68,12253,2146956553,2147516306,2147275044,2147460992,2147083465,2146955373,2147658468,2147127003,2596,-1,8,51848
1357834106,5805,486.0599975585937500,17.3239994049072270,36.4211997985839840,221.4770965576172000,177.6555023193359400,17.3220500946044920,31.7146091461181640,51,100,96,80,68,12253,2146956562,2147513490,2147271634,2147460580,2147084379,2146960676,2147655990,2147128393,2072,-1,8,24112
1357834238,5809,475.3099975585937500,17.4554996490478500,36.4463005065918000,223.4821014404297000,173.5169982910156200,17.4468898773193360,31.5544204711914060,50,100,95,80,67,12250,2146958994,2147516096,2147271414,2147460315,2147080731,2146952960,2147651712,2147128228,1826,-1,8,33044
1357834370,5755,464.5000000000000000,17.5494995117187500,36.4649009704589840,224.9687042236328000,170.2015075683593800,17.5469303131103500,31.4328594207763670,51,98,96,80,67,12249,2146955419,2147513161,2147271936,2147458788,2147081234,2146954834,2147653970,2147123355,1392,-2,8,32634
1357834504,5810,453.2399902343750000,17.6665000915527340,36.4912986755371100,228.3786010742187500,166.3058013916015600,17.6644897460937500,31.2077407836914060,51,99,96,80,66,12253,2146957686,2147514578,2147270016,2147458788,2147081810,2146958601,2147652050,2147126235,821,-1,8,47345
1357834636,5806,441.8399963378906000,17.7628002166748050,36.5108985900878900,231.9190979003906200,163.1965026855468800,17.7583408355712900,30.9902591705322270,50,99,95,81,67,12249,2146959186,2147515492,2147271469,2147458267,2147074048,2146951158,2147652781,2147127616,553,-1,8,57989
1357834760,5807,430.9599914550781000,17.8244991302490230,36.5233993530273440,233.8090057373047000,161.1757049560547000,17.8193397521972660,30.8710708618164060,51,100,95,80,66,12251,2146957193,2147514075,2147265636,2147456996,2147082624,2146957933,2147647424,2147125632,385,-1,8,8730
1357834881,5806,420.3900146484375000,17.8628005981445300,36.5288009643554700,234.2077026367187500,159.9248046875000000,17.8571090698242200,30.8350391387939450,51,100,94,81,67,12250,2146958363,2147513938,2147269165,2147454052,2147071789,2146954130,2147650121,2147127168,3338,-1,9,64795
1357835002,5803,409.8500061035156000,17.8812007904052730,36.5261001586914060,232.3829956054687500,159.1172027587890600,17.8814907073974600,30.9127197265625000,50,100,95,80,67,12246,2146958902,2147518701,2147269440,2147456795,2147082377,2146954989,2147653403,2147123913,2826,-2,9,9728
1357835136,5804,398.5700073242187500,17.9430999755859380,36.5351982116699200,230.4774932861328000,157.2637939453125000,17.9374504089355470,30.9815406799316400,51,100,95,80,68,12246,2146959067,2147514916,2147265453,2147456996,2147087570,2146956260,2147647533,2147127323,1616,-2,9,47342
1357835268,5805,387.7099914550781000,17.9850006103515620,36.5415992736816400,230.3399963378906200,155.8560028076172000,17.9799594879150400,30.9691791534423830,52,99,95,81,67,12249,2146959122,2147514368,2147268288,2147454052,2147084745,2146959597,2147646436,2147126674,741,-1,9,35581
1357835403,5805,376.6199951171875000,18.0562000274658200,36.5549011230468750,232.1692047119140600,153.5001068115234400,18.0511093139648440,30.8478202819824220,50,100,96,79,67,12249,2146957531,2147515218,2147268086,2147455268,2147084690,2146956864,2147651062,2147123885,236,-2,9,3314
1357835546,5804,365.3900146484375000,18.1086997985839840,36.5578002929687500,230.7608947753906200,151.6273040771484400,18.1076793670654300,30.8918800354003900,52,100,96,81,67,12246,2146959606,2147515611,2147267849,2147454637,2147082075,2146960393,2147648969,2147124041,2458,-2,9,53504
1357835689,5805,353.7000122070312500,18.1821994781494140,36.5703010559082000,230.6092071533203000,149.2268981933593800,18.1801891326904300,30.8670902252197270,51,100,96,81,68,12248,2146956854,2147514486,2147268105,2147453851,2147081691,2146960384,2147648941,2147125897,1915,-1,9,63102
1357835801,5804,342.6700134277344000,18.2306003570556640,36.5752983093261700,230.7953033447265600,147.6976928710937500,18.2264003753662100,30.8373603820800780,51,99,95,81,69,12246,2146958884,2147515218,2147268928,2147451593,2147088118,2146962075,2147645485,2147125110,1486,-2,8,55799
1357835911,5808,331.2900085449219000,18.2891998291015620,36.5800018310546900,230.0213928222656200,145.7637023925781200,18.2848396301269530,30.8495693206787100,51,100,94,80,68,12244,2146958610,2147515190,2147272338,2147454582,2147080137,2146960649,2147646848,2147124352,608,-1,8,62861
1357836023,5802,319.5199890136719000,18.3526000976562500,36.5844993591308600,229.0617065429687500,143.6289062500000000,18.3493499755859380,30.8684501647949220,51,99,95,80,67,12246,2146960054,2147511387,2147269266,2147455168,2147087643,2146961883,2147648347,2147126683,3185,-2,8,59629
1357836122,5805,309.1099853515625000,18.4480991363525400,36.5904998779296900,226.5415039062500000,140.4360961914062500,18.4458599090576170,30.9514694213867200,50,99,96,80,67,12246,2146959195,2147515392,2147266075,2147452452,2147083318,2146961526,2147647122,2147126317,2475,-1,9,23307
1357836232,5804,297.5700073242187500,18.5121002197265620,36.5931015014648440,226.0957946777343800,138.1658935546875000,18.5144996643066400,30.9435806274414060,50,99,96,79,68,12247,2146956032,2147513929,2147268233,2147454518,2147085412,2146960886,2147648969,2147125851,2335,-1,8,52597
1357836349,5804,286.8699951171875000,18.6238002777099600,36.5955009460449200,225.1484985351562500,134.7893066406250000,18.6166000366210940,30.9461097717285160,51,98,96,80,67,12246,2146956918,2147513307,2147267730,2147449088,2147085357,2146959186,2147646427,2147128896,2290,-2,9,5859
1357836503,5804,275.7399902343750000,18.7247009277343750,36.5928993225097660,225.7810974121093800,131.2935943603515600,18.7223396301269530,30.8674507141113280,50,99,98,81,68,12245,2146956918,2147515318,2147268854,2147451419,2147090432,2146959780,2147647085,2147126555,2128,-1,9,15508
1357836656,5802,263.9899902343750000,18.8026008605957030,36.5866012573242200,226.7263031005859400,128.7626037597656200,18.7989196777343750,30.7864208221435550,52,99,96,80,67,12245,2146955620,2147513846,2147266377,2147448612,2147086061,2146959478,2147645184,2147126482,1064,-1,8,17640
1357836777,5806,252.9100036621093800,18.8955993652343750,36.5975990295410160,226.6923065185547000,125.7470016479492200,18.8901691436767580,30.7478199005126950,52,99,96,80,67,12246,2146956873,2147513892,2147268699,2147449042,2147089892,2146962066,2147650459,2147126546,591,-1,8,60678
1357836901,5806,241.5000000000000000,19.0461997985839840,36.5988998413085940,227.8036041259765600,120.7236022949218800,19.0422496795654300,30.6258907318115230,51,99,96,81,67,12246,2146959661,2147517476,2147264448,2147451501,2147087936,2146961947,2147651099,2147127945,135,-1,8,39529
1357837022,5808,230.2899932861328000,19.1103000640869140,36.5764007568359400,233.4342041015625000,118.1072006225586000,19.1214809417724600,30.3164196014404300,50,98,95,80,67,12244,2146957595,2147513664,2147267117,2147448914,2147090230,2146963108,2147653814,2147128429,91,-1,8,48936
1357837143,5804,219.1600036621093800,19.2481994628906250,36.5775985717773440,237.8910980224609400,113.6519012451171900,19.2564392089843750,30.0461006164550780,50,105,96,81,66,12240,2146956726,2147518445,2147264137,2147450477,2147084489,2146971968,2147660891,2147129161,3037,-1,9,24289
1357837256,5805,208.6999969482422000,19.3490009307861330,36.5859985351562500,239.0223999023437500,110.6638031005859400,19.3470001220703120,29.9539699554443360,51,101,97,79,66,12241,2146954633,2147515145,2147268370,2147451099,2147087515,2146969444,2147673462,2147131913,3073,-1,9,43143
1357837366,5808,198.5800018310547000,19.4708003997802730,36.5957984924316400,238.2937927246093800,106.3377990722656200,19.4781398773193360,29.9317493438720700,51,103,96,81,66,12235,2146956059,2147513398,2147267858,2147445394,2147088073,2146973531,2147673472,2147128969,2416,-1,9,4091
1357837421,5808,193.6199951171875000,19.5387001037597660,36.6044998168945300,237.0841979980468800,104.4964981079101600,19.5339794158935550,29.9645004272460940,51,104,96,82,66,12236,2146956050,2147511186,2147268736,2147447579,2147087131,2146977737,2147672054,2147131702,2686,-2,8,9140
1357837476,5805,188.7200012207031200,19.6112003326416000,36.6120986938476560,235.7185974121093800,102.1162033081054700,19.6061706542968750,29.9978408813476560,52,102,96,80,66,12233,2146956434,2147509824,2147266578,2147444626,2147088795,2146981138,2147683776,2147130249,2321,-2,9,52096
1357837550,5808,182.5700073242187500,19.6403999328613280,36.6123008728027340,235.6217041015625000,101.1417999267578100,19.6357307434082030,29.9896297454834000,51,103,98,80,67,12234,2146958043,2147514880,2147265280,2147449197,2147088073,2146986514,2147692900,2147131520,1839,-2,9,53514
1357837605,5810,178.4299926757812500,19.7099990844726560,36.6171989440918000,235.8023071289062500,98.7124328613281200,19.7094497680664060,29.9495105743408200,53,104,97,82,67,12234,2146956141,2147517330,2147268598,2147446107,2147088850,2146990299,2147701933,2147132068,1778,-2,9,11221
1357837660,5805,174.5200042724609400,19.7845001220703120,36.6265983581543000,235.8751983642578000,96.2449874877929700,19.7843303680419920,29.9138603210449220,52,103,98,81,66,12234,2146956662,2147512676,2147266733,2147445860,2147088758,2146994194,2147711570,2147132452,2028,-1,9,46385
1357837715,5806,170.7100067138672000,19.8770999908447270,36.6391983032226560,235.3753967285156200,93.2204132080078100,19.8761596679687500,29.8982791900634770,53,104,98,80,67,12235,2146956827,2147511552,2147269202,2147447670,2147090221,2146995053,2147720758,2147130624,2513,-1,9,63654
1357837770,5802,167.1100006103515600,19.9769001007080080,36.6467018127441400,234.8005065917968800,89.9311676025390600,19.9760494232177730,29.8828506469726560,54,103,97,81,68,12228,2146957184,2147516754,2147266496,2147446619,2147088795,2147006866,2147730752,2147134409,2590,-1,9,15498
1357837861,5808,162.3999938964843800,20.1259002685546880,36.6599998474121100,234.0959930419922000,85.3741302490234400,20.1145095825195300,29.8570995330810550,53,103,97,81,68,12230,2146955492,2147514980,2147266130,2147445202,2147092928,2147007405,2147748489,2147132480,2694,-2,9,32582
1357837960,5809,158.8399963378906200,20.2248001098632800,36.6650009155273440,233.7924041748047000,82.0537185668945300,20.2154502868652340,29.8285408020019530,55,102,97,81,67,12227,2146958582,2147513106,2147268544,2147444123,2147094848,2147026057,2147769417,2147137755,1838,-1,9,37995
1357838070,5805,154.5700073242187500,20.2740993499755860,36.6673011779785160,233.8796997070312500,80.2944717407226600,20.2689399719238280,29.8015708923339840,55,105,97,82,67,12226,2146956187,2147517796,2147270125,2147445138,2147096740,2147038363,2147785270,2147134080,1611,-2,9,6606
1357838161,5806,150.3000030517578000,20.4314002990722660,36.6730003356933600,233.4875030517578000,75.5679931640625000,20.4127197265625000,29.7590599060058600,55,106,99,82,67,12224,2146957184,2147517037,2147270601,2147443648,2147100909,2147049426,2147810779,2147138194,406,-1,9,45223
1357838238,5806,146.6999969482422000,20.5158004760742200,36.6775016784668000,233.1755981445312500,72.4159393310546900,20.5086498260498050,29.7333202362060550,54,110,99,82,67,12217,2146956745,2147518683,2147272274,2147442861,2147101138,2147058267,2147828096,2147139328,261,-1,8,53914
1357838326,5804,142.9700012207031200,20.5631999969482420,36.6769981384277340,233.4761962890625000,70.9055175781250000,20.5546302795410160,29.6994304656982420,55,107,97,83,67,12218,2146956937,2147516836,2147273453,2147442413,2147102546,2147079360,2147855945,2147140918,3301,-2,9,24667
1357838403,5806,140.0299987792968800,20.6002006530761720,36.6772003173828100,233.7633056640625000,69.6485366821289000,20.5929107666015620,29.6695899963378900,56,106,99,84,67,12215,2146954770,2147516278,2147272201,2147441334,2147110537,2147092160,2147881280,2147145536,2235,-2,9,64952
1357838526,5805,136.2899932861328000,20.6723995208740230,36.6763992309570300,234.1457061767578000,67.3373565673828100,20.6632995605468750,29.6217498779296880,55,107,98,83,67,12214,2146957513,2147518537,2147273261,2147443565,2147116352,2147123419,2147921161,2147145554,2323,-2,9,28107
1357838822,5805,132.1100006103515600,20.8824005126953120,36.6375999450683600,239.1123046875000000,60.2960700988769500,20.8778896331787100,29.2998504638671880,57,115,100,85,66,12200,2146958646,2147519597,2147279588,2147437805,2147126226,2147161700,2147993462,2147150976,730,-2,9,41588
1357838943,5806,127.8600006103515600,20.9529991149902340,36.5847015380859400,242.0821990966797000,58.0113487243652340,20.9475593566894530,29.1348094940185550,58,116,102,86,64,12191,2146957037,2147520201,2147281746,2147437394,2147137536,2147202139,2148060050,2147154230,298,-2,9,35282
1357839053,5805,123.8899993896484400,20.9967994689941400,36.5630989074707000,246.1331939697265600,56.5998687744140600,20.9906196594238280,28.9351692199707030,60,122,104,86,64,12189,2146960484,2147524224,2147279917,2147441673,2147158290,2147250121,2148124544,2147158646,379,-2,9,9926
1357839153,5802,119.5800018310546900,21.0552997589111330,36.5274009704589840,249.4730072021484400,54.7709007263183600,21.0464191436767580,28.7649993896484380,61,131,104,87,63,12180,2146960256,2147524269,2147287588,2147437293,2147178934,2147335561,2148259163,2147168118,2786,-2,9,57996
1357839230,5803,115.7500000000000000,21.0641002655029300,36.5206985473632800,252.0310974121093800,54.3538017272949200,21.0591506958007800,28.6485996246337900,62,127,102,88,64,12163,2146960749,2147529216,2147290468,2147436772,2147207990,2147405888,2148364489,2147176576,3475,-1,9,51853
1357839318,5807,111.5299987792968800,21.0881004333496100,36.5144996643066400,253.3816986083984400,53.4941482543945300,21.0853805541992200,28.5797195434570300,65,135,104,88,63,12167,2146963282,2147534994,2147303296,2147439670,2147258304,2147557083,2148615241,2147190729,474,-2,9,33712
1357839406,5804,107.8000030517578100,21.1079998016357420,36.5066986083984400,254.8641967773437500,52.8856697082519500,21.1039505004882800,28.5087203979492200,69,138,109,88,61,12140,2146966153,2147540470,2147313014,2147441152,2147300772,2147667483,2148780361,2147205641,329,-2,9,16639
1357839507,5804,103.8300018310546900,21.1159000396728500,36.5059013366699200,256.1065979003906000,52.6015396118164060,21.1126308441162100,28.4524497985839840,72,134,105,89,62,12131,2146966528,2147541248,2147310518,2147438235,2147334180,2147714550,2148815140,2147209782,3335,-2,9,59787
1357839617,5806,99.6800003051757800,21.1177997589111330,36.5046005249023440,256.5346069335937500,52.5423393249511700,21.1144294738769530,28.4335308074951170,75,140,105,90,63,12107,2146969243,2147545920,2147319963,2147439122,2147398317,2147839396,2149000813,2147224091,2706,-1,9,16372
1357839672,5804,97.6600036621093800,21.1172008514404300,36.5043983459472660,256.7448120117187500,52.5430297851562500,21.1144104003906250,28.4248504638671880,76,139,106,88,62,12122,2146974473,2147552667,2147336109,2147438464,2147491492,2148110171,2149425206,2147256914,2451,-2,9,27730
1357839727,5805,95.6399993896484400,21.1173992156982420,36.5038986206054700,256.6832885742187500,52.5377197265625000,21.1145706176757800,28.4272708892822270,74,134,106,89,63,12124,2146971574,2147557531,2147339446,2147439862,2147529682,2148187794,2149540516,2147267145,2470,-2,9,59476
1357839805,5805,92.3600006103515600,21.1191005706787100,36.5035018920898440,256.9096984863281000,52.4956207275390600,21.1158599853515620,28.4172592163085940,73,137,109,88,63,12114,2146974061,2147566820,2147354688,2147438582,2147643803,2148426870,2149865929,2147295881,2525,-1,9,44912
1357839860,5806,89.3099975585937500,21.1205997467041000,36.5033988952636700,256.8009948730469000,52.4543190002441400,21.1171207427978500,28.4213409423828120,75,141,105,89,62,12045,2146986139,2147580397,2147382198,2147442925,2147827794,2148865984,2150544246,2147353563,2247,-2,9,4439
1357839915,5808,86.1399993896484400,21.1207008361816400,36.5035018920898440,256.9596862792969000,52.4317016601562500,21.1178092956542970,28.4142494201660160,76,138,106,89,62,12122,2147003108,2147613357,2147441545,2147446518,2148198546,2149775945,2151986340,2147477988,1851,-2,9,65124
1357839970,5807,82.9700012207031200,21.1194000244140620,36.5029983520507800,257.1546020507812500,52.4518585205078100,21.1172008514404300,28.4063301086425780,76,140,108,90,63,12122,2147007844,2147631387,2147474523,2147448649,2148418240,2150203437,2152607433,2147535789,1549,-1,9,56521
1357840025,5804,79.8000030517578100,21.1189994812011720,36.5026016235351560,257.2886047363281000,52.4917907714843750,21.1159801483154300,28.4013900756835940,74,139,107,90,62,12124,2147014052,2147639798,2147487497,2147446802,2148578322,2150446299,2152828882,2147570166,1440,-1,9,49441
1357840080,5804,76.5400009155273400,21.1212005615234380,36.4996986389160160,257.1195983886719000,52.4170417785644500,21.1182594299316400,28.4074306488037100,76,138,105,91,62,12127,2147037723,2147678290,2147556800,2147453001,2149058194,2151446418,2154307830,2147716297,1324,-2,9,3037
1357840137,5805,73.2799987792968800,21.1233997344970700,36.4998016357421900,257.2872009277344000,52.3340415954589840,21.1207904815673830,28.3993492126464840,79,137,105,89,62,12114,2147045568,2147679981,2147560832,2147454838,2149240100,2151649005,2154443227,2147763044,1310,-1,9,54850
1357840192,5806,70.1600036621093800,21.1310005187988280,36.4989013671875000,257.4570922851562500,52.0882682800293000,21.1282901763916000,28.3890800476074220,79,148,105,90,61,12101,2147037202,2147658267,2147500022,2147453659,2149073389,2151009444,2153245348,2147681298,1526,-2,9,52435
1357840247,5803,67.0500030517578100,21.1319999694824220,36.4999008178710940,257.6812133789062500,52.0491294860839840,21.1294898986816400,28.3792095184326170,81,140,105,89,62,12098,2147043181,2147660589,2147492617,2147453229,2149159268,2150989860,2153051318,2147687085,1680,-1,9,58839
1357840302,5803,63.9599990844726560,21.1312999725341800,36.4986000061035160,257.6188964843750000,52.0691909790039060,21.1288795471191400,28.3820590972900400,80,138,109,94,63,12090,2147044470,2147654427,2147480246,2147452169,2149203565,2150827510,2152610998,2147670555,1638,-1,9,27983
1357840357,5807,60.9000015258789060,21.1460990905761720,36.4984016418457000,257.4909973144531000,51.4973907470703100,21.1463298797607420,28.3801307678222660,84,142,107,90,63,12101,2147055798,2147667931,2147492425,2147451154,2149507090,2151195547,2152960320,2147729353,1872,-1,9,24792
1357840412,5804,57.8499984741210940,21.1730995178222660,36.4990997314453100,258.3015136718750000,50.7375602722168000,21.1695308685302730,28.3367195129394530,86,153,107,91,61,12075,2147124800,2147785389,2147670427,2147469796,2151191049,2154205339,2157032219,2148266669,2151,-2,9,10234
1357840469,5805,54.8699989318847660,21.2136001586914060,36.4958000183105500,258.7276916503906000,49.2756195068359400,21.2141704559326170,28.3006305694580080,88,144,108,90,61,12066,2147193042,2147877924,2147821174,2147486747,2152694756,2156688448,2160358857,2148775753,1995,-2,9,26381
1357840611,5808,49.3300018310546900,21.3386001586914060,36.4966011047363300,257.7482910156250000,45.2437591552734400,21.3373394012451170,28.2912693023681640,84,146,107,91,62,12077,2147236562,2147918217,2147852114,2147496859,2153868937,2158012150,2161567990,2149071908,2621,-2,9,64450
1357840645,5804,47.8499984741210940,21.3659992218017580,36.4984016418457000,257.1524963378906000,44.4648513793945300,21.3611392974853500,28.3065204620361330,81,136,106,90,63,12082,2147206491,2147857115,2147751341,2147486381,2153029897,2156206701,2158757257,2148705225,2417,-2,9,10549
1357840690,5806,45.7900009155273440,21.3983993530273440,36.4940986633300800,256.5914916992187500,43.2183914184570300,21.3992290496826170,28.3144798278808600,80,136,106,90,62,12090,2147260187,2147929810,2147845970,2147497408,2154496969,2158419108,2161386029,2149174226,2507,-2,10,56575
1357840735,5804,43.8100013732910160,21.4267997741699220,36.4863014221191400,256.5185852050781000,42.4300308227539060,21.4233303070068360,28.3078308105468750,81,134,105,89,64,12093,2147416576,2148156982,2148202752,2147561782,2157836589,2163731145,2167970898,2150365458,3128,-2,9,12539
1357840793,5808,41.4700012207031250,21.4316997528076170,36.4821014404296900,256.6279907226562500,42.2189788818359400,21.4297904968261720,28.3006706237792970,79,141,104,88,62,12100,2147359936,2148050953,2147999323,2147533659,2156890953,2161547794,2164639195,2149914294,2766,-2,9,40503
1357840838,5802,39.5999984741210940,21.4300994873046880,36.4802017211914060,256.8785095214844000,42.2455291748046900,21.4289703369140620,28.2902603149414060,79,135,104,90,62,12086,2147366006,2148041910,2147964800,2147531081,2157014893,2161249024,2163811913,2149863506,2589,-2,9,7359
1357840883,5803,37.6899986267089840,21.4298000335693360,36.4794006347656250,256.8678894042969000,42.2571411132812500,21.4286193847656250,28.2910404205322270,81,137,106,89,63,12081,2147413860,2148095835,2148028297,2147544338,2158246518,2162786230,2165416320,2150256868,2472,-1,9,18760
1357840928,5807,35.7400016784668000,21.4293003082275400,36.4776000976562500,257.1518859863281000,42.2841796875000000,21.4277896881103500,28.2793197631835940,83,139,105,87,62,12086,2147445622,2148114797,2148032164,2147559680,2159070336,2163374208,2165566034,2150498496,2423,-2,9,45479
1357840973,5804,33.7500000000000000,21.4290008544921880,36.4780998229980500,257.4342041015625000,42.2651100158691400,21.4283790588378900,28.2674293518066400,84,140,106,88,62,12069,2147524379,2148198363,2148144155,2147590811,2161080256,2165823954,2168075382,2151203949,2557,-2,8,10070
1357841018,5808,31.7999992370605470,21.4290008544921880,36.4780998229980500,257.6195068359375000,42.2478904724121100,21.4288997650146500,28.2593803405761720,83,140,106,90,62,12071,2147625536,2148306459,2148281124,2147623003,2163506514,2168864201,2171318125,2152097536,2595,-2,9,15539
1357841076,5804,29.3400001525878900,21.4293003082275400,36.4776992797851560,257.7590026855469000,42.2155418395996100,21.4298896789550780,28.2530097961425780,89,138,108,90,62,12064,2148002368,2148779090,2148904512,2147746340,2172469513,2181233033,2185531547,2155765485,2555,-1,9,11295
1357841121,5803,27.4699993133544920,21.4302997589111330,36.4776000976562500,257.8565063476562500,42.1689186096191400,21.4313201904296880,28.2483501434326170,84,141,105,90,62,12057,2147866642,2148560438,2148581357,2147709522,2169098660,2175254692,2177626102,2154151104,2428,-1,9,52330
1357841166,5803,25.6100006103515620,21.4349994659423830,36.4774017333984400,258.2715148925781000,41.9365196228027340,21.4384193420410160,28.2282505035400400,87,141,108,90,62,12046,2148363712,2149188470,2149416786,2147875812,2181565568,2192631707,2197853312,2159495131,2319,-2,10,744
